Location: *
(50.8667°S, 179.2667°W)
Time: 05:07:24
(UTC+00:00)

Cosmos 2369 Rocket - Pass Details

Date: 02 October 2023
Orbit: 828 x 853 km, 71.0° (Epoch: 10 December)

Event Time Altitude Azimuth Distance (km) Brightness Sun altitude
Exits shadow 13:24:06 31° 223° (SW) 1,491 3.5 -31.7°
Drops below altitude 10° 13:29:10 10° 162° (SSE) 2,522 5.5 -31.3°
Sets 13:31:58 0° 151° (SSE) 3,463 6.6 -31.0°
